Content
SEND FEEDBACK

Daily
Averages
Monthly
Summary
United States of America

ST. LOUIS - SAINT LOUIS UNIVERSITY, MISSOURI


Home > North America > United States > Missouri
Elevation: 580 feet     Latitude: 38 38N     Longitude: 090 14W

WEATHER
 
SELECT A DAY
Number of Records: 186,236;   Date Range: 1/1/95 - 8/28/14
 
SHARE

PRINT THIS DATA

[ ← Previous Day ]
WEATHER ALMANAC - MARCH 17, 2013
[ Next Day → ]
[ °C ]   °F
Weather ElementAverageHighLow
Temperature35.6 °F37.9 °F (1:53 pm)33.1 °F (7:53 am)
Dewpoint31.8 °F35.1 °F (10:53 pm)28.4 °F (7:32 am)
Humidity86.1 %93 % (4:09 pm)75 % (10:50 am)
Barometer30.01 in30.12 in (6:53 am)29.80 in (10:53 pm)
Wind Speed10.1 mph16.1 mph (9:53 pm)
Wind Gust25.3 mph (9:53 pm)
Weather ElementAverage
Visibility5.8 mi
Wind DirectionENE (61.7 °)

Weather ElementTotal
Precipitation1.84 in
Heating Degree Days29.5 (Base 65)
Averaged from 42 records on March 17, 2013
WEATHER CONDITIONS BREAKOUT
WIND DIRECTION BREAKOUT
WEATHER BY HOUR - MARCH 17, 2013
[ °C ]   °F
Local TimeTemperatureDewpointHumidityBarometerVisibilityWind DirectionWind SpeedGust SpeedPrecipitationEventsConditions
1:53 AM37.0 °F34.0 °F89 %30.07 in5.0 miNNE (30°)5.8 mph0.08 inRainLight Rain
2:53 AM37.0 °F33.1 °F86 %30.08 in9.0 miNE (40°)9.2 mph0.10 inRainLight Rain
3:53 AM37.0 °F32.0 °F82 %30.09 in10.0 miNE (40°)8.1 mph0.01 inOvercast
4:53 AM36.0 °F30.9 °F82 %30.08 in10.0 miENE (60°)8.1 mph0.04 inRainLight Rain
5:00 AM35.6 °F32.0 °F87 %30.07 in10.0 miENE (60°)10.4 mph0.00 inOvercast
5:14 AM35.6 °F30.2 °F81 %30.07 in10.0 miENE (60°)15.0 mph0.00 inOvercast
5:53 AM35.1 °F30.0 °F82 %30.09 in10.0 miENE (60°)10.4 mph0.00 inRainLight Rain
6:53 AM35.1 °F28.9 °F78 %30.12 in10.0 miNE (40°)9.2 mph0.00 inOvercast
7:32 AM33.8 °F28.4 °F81 %30.10 in2.0 miNE (40°)11.5 mph0.01 inSnowLight Snow
7:44 AM33.8 °F28.4 °F81 %30.10 in1.8 miENE (60°)8.1 mph0.01 inSnowLight Snow
7:53 AM33.1 °F28.9 °F85 %30.11 in0.8 miENE (60°)9.2 mph0.02 inSnowLight Snow
8:13 AM33.8 °F30.2 °F87 %30.09 in2.0 miENE (60°)6.9 mph0.00 inSnowLight Snow
8:27 AM33.8 °F30.2 °F87 %30.09 in3.0 miENE (60°)6.9 mph0.00 inSnowLight Snow
8:38 AM33.8 °F30.2 °F87 %30.10 in2.5 miNE (50°)8.1 mph0.00 inSnowLight Snow
8:48 AM33.8 °F30.2 °F87 %30.10 in5.0 miNE (50°)5.8 mph0.00 inSnowLight Snow
8:53 AM34.0 °F30.0 °F85 %30.11 in4.0 miNE (50°)4.6 mph0.00 inOvercast
9:39 AM35.6 °F30.2 °F81 %30.10 in10.0 miENE (60°)6.9 mphOvercast
9:53 AM35.1 °F30.0 °F82 %30.11 in10.0 miNE (50°)10.4 mphOvercast
10:50 AM35.6 °F28.4 °F75 %30.10 in6.0 miENE (60°)10.4 mph0.00 inSnowLight Snow
10:53 AM35.1 °F30.0 °F82 %30.11 in6.0 miENE (60°)11.5 mph0.00 inSnowLight Snow
11:20 AM35.6 °F30.2 °F81 %30.07 in2.0 miENE (70°)12.7 mph0.00 inSnowLight Snow
11:32 AM35.6 °F30.2 °F81 %30.06 in5.0 miENE (70°)12.7 mph0.00 inSnowLight Snow
11:53 AM36.0 °F30.9 °F82 %30.06 in10.0 miENE (60°)15.0 mph19.6 mph0.00 inOvercast
12:53 PM37.0 °F32.0 °F82 %30.05 in10.0 miENE (70°)12.7 mphOvercast
1:53 PM37.9 °F32.0 °F79 %30.02 in10.0 miEast (80°)12.7 mphOvercast
2:53 PM37.0 °F32.0 °F82 %29.99 in6.0 miENE (70°)9.2 mph0.01 inRainLight Rain
3:53 PM36.0 °F32.0 °F86 %29.98 in2.5 miNE (40°)9.2 mph0.04 inRain-SnowSnow
4:09 PM35.6 °F33.8 °F93 %29.94 in3.0 miENE (70°)9.2 mph0.04 inRainLight Rain
4:53 PM36.0 °F33.1 °F89 %29.92 in4.0 miENE (70°)10.4 mph0.05 inRainLight Rain
5:53 PM36.0 °F33.1 °F89 %29.94 in6.0 miENE (60°)9.2 mph0.00 inRainLight Rain
6:21 PM35.6 °F33.8 °F93 %29.93 in4.0 miNE (40°)9.2 mph0.04 inRain-ThunderstormThunderstorms and Rain
6:53 PM36.0 °F34.0 °F93 %29.88 in3.0 miENE (60°)10.4 mph0.19 inRain-ThunderstormRain
7:21 PM35.6 °F33.8 °F93 %29.88 in4.0 miEast (80°)11.5 mph0.08 inRainRain
7:39 PM35.6 °F33.8 °F93 %29.88 in7.0 miENE (70°)12.7 mph0.09 inRain-ThunderstormLight Rain
7:53 PM36.0 °F34.0 °F93 %29.89 in4.0 miENE (60°)11.5 mph19.6 mph0.11 inRainRain
8:11 PM35.6 °F33.8 °F93 %29.88 in3.0 miENE (70°)10.4 mph0.07 inRain-ThunderstormRain
8:26 PM35.6 °F33.8 °F93 %29.87 in3.0 miENE (70°)11.5 mph0.14 inRainHeavy Rain
8:53 PM36.0 °F34.0 °F93 %29.88 in4.0 miEast (80°)10.4 mph0.24 inRain-ThunderstormRain
9:15 PM37.4 °F33.8 °F87 %29.85 in4.0 miEast (90°)11.5 mph0.09 inRainRain
9:53 PM37.0 °F34.0 °F89 %29.82 in3.0 miESE (110°)16.1 mph25.3 mph0.24 inRainHeavy Rain
10:53 PM37.0 °F35.1 °F93 %29.80 in10.0 miENE (70°)11.5 mph0.11 inRainLight Rain
11:53 PM37.0 °F35.1 °F93 %29.80 in8.0 miEast (80°)6.9 mph0.03 inRainLight Rain
Hourly data recorded from KCPS, located miles away from St. Louis - Saint Louis University, Missouri







STORIES FROM OUR PARTNERS